Location: Azat
(46.0765°N, 1.7600°E)
Time: 10:47:52
(UTC+00:00)

SPOT 1/Viking Rocket - Pass Details

Date: 09 April 2020
Orbit: 776 x 795 km, 98.5° (Epoch: 03 June)

Event Time Altitude Azimuth Distance (km) Brightness Sun altitude
Exits shadow 21:30:46 63° 230° (SW) 886 3.7 -27.1°
Maximum altitude 21:31:11 66° 258° (WSW) 869 3.7 -27.2°
Drops below altitude 10° 21:36:24 10° 341° (NNW) 2,375 6.9 -27.8°
Sets 21:38:46 0° 344° (NNW) 3,309 7.8 -28.0°
